Volver al catálogo

DSCS 2-15

ActivoMilitarGEO
NORAD 13636·PAYLOAD·🇺🇸 United States

Lanzado Oct 30, 1982 desde Cape Canaveral Space Force Station

Loading…

TLE

ActualizadoSource: Space-Track

Época: Sep 13, 2026, 22:24 UTC

1 13636U 82106A   26256.93367613 -.00000146  00000-0  00000-0 0  9997
2 13636  11.9828 326.5417 0004094 255.4442 107.5050  0.95090707104977

Sigue DSCS 2-15 en tiempo real con AllMySat

Download on the App Store